Wind_Speed
35 34 34 34 34 34 35 36 36 35 34 34 34 34 33 33 33 33 31 31 30 30 30 29 28 27 26 25 24 23 23 22 22 21 20 20 20 20 20 21 21 22 22
36 36 36 35 36 36 36 36 37 37 36 35 35 36 35 34 35 34 33 33 32 32 31 31 30 29 28 27 27 26 25 25 24 24 24 23 23 23 23 23 23 23 23
36 36 36 37 37 37 37 38 38 38 38 37 37 37 37 36 36 36 35 35 35 34 33 32 32 32 31 30 29 28 28 27 27 26 27 26 25 25 25 25 25 25 26
36 37 37 37 38 38 38 38 39 39 39 39 39 39 39 39 38 37 37 37 37 36 35 34 34 34 34 33 32 30 30 29 29 29 29 29 28 27 28 28 28 28 28
36 37 37 38 38 39 39 39 40 40 41 40 41 40 40 41 41 40 39 39 38 38 38 37 36 35 35 34 34 33 32 32 31 31 31 31 30 30 30 30 30 30 30
36 37 37 36 37 39 40 40 40 42 42 42 42 42 42 43 43 42 41 40 40 39 39 39 38 37 37 37 37 36 35 34 33 33 33 33 33 32 32 31 31 31 31
36 37 37 37 37 38 39 41 41 42 42 43 43 43 43 44 43 43 42 42 41 41 41 41 40 40 39 40 39 38 37 36 36 36 35 35 35 34 33 33 32 32 32
36 37 37 36 37 38 39 41 41 42 43 43 43 44 45 45 45 43 43 42 42 42 42 41 41 41 41 41 40 39 38 38 37 37 36 37 37 36 35 34 33 34 34
36 37 36 36 37 38 39 41 42 42 43 43 45 46 46 46 45 45 44 45 44 43 41 42 43 42 42 42 41 41 40 40 40 39 38 38 38 37 36 36 36 36 36
36 37 36 36 37 38 39 41 42 43 43 43 45 46 46 46 46 46 46 46 45 43 43 43 43 42 42 42 43 42 42 41 41 41 40 40 40 39 39 38 39 39 39
36 37 36 36 37 38 39 40 42 43 44 45 46 46 46 47 47 46 45 44 45 45 44 44 44 44 44 44 43 43 43 42 42 42 41 40 41 41 41 41 41 41 42
36 36 35 35 36 38 39 41 41 42 43 44 44 45 45 46 46 46 46 45 45 45 45 46 46 46 46 46 45 45 45 45 44 43 43 42 42 43 43 43 43 43 44
35 36 36 36 36 38 39 40 40 40 41 42 43 44 44 44 45 46 46 45 46 45 46 46 46 47 47 47 47 47 46 46 46 45 45 45 44 44 44 45 45 46 46
35 36 36 36 36 36 37 38 39 39 39 40 42 43 44 44 45 47 47 47 46 46 47 47 47 48 47 47 48 47 47 48 47 47 47 47 46 46 46 47 47 47 48
35 36 37 36 35 35 36 37 38 39 39 40 40 41 43 44 45 46 47 48 48 48 48 48 48 48 48 48 48 48 48 49 48 48 48 48 48 48 49 49 49 49 49
36 36 37 37 37 36 37 38 39 39 39 40 40 41 42 44 44 46 47 48 48 48 48 49 49 48 49 49 49 50 50 49 50 49 49 50 50 50 50 51 52 51 51
36 36 36 37 37 37 37 38 39 38 39 39 41 42 44 44 45 45 47 48 48 48 48 48 49 50 50 51 51 51 51 51 51 51 51 51 51 51 52 52 52 52 52
35 36 37 37 37 37 37 37 38 38 39 40 41 42 42 43 43 45 46 47 47 47 47 48 49 49 50 52 52 52 51 51 52 52 52 53 53 53 53 53 53 53 54
34 35 36 36 37 36 37 37 38 39 40 40 40 41 41 42 42 42 43 45 45 46 47 48 48 49 50 50 51 51 51 52 52 53 53 53 54 54 54 55 55 55 56
35 35 35 35 36 36 36 37 38 39 40 40 40 41 42 41 42 42 42 43 44 45 46 47 47 48 49 49 50 50 51 52 52 52 52 53 54 54 55 56 56 57 57
35 36 36 36 36 36 36 37 37 38 39 40 41 41 42 42 41 42 42 43 44 44 44 45 46 46 48 48 49 49 50 51 51 51 52 53 54 54 55 56 57 57 57
35 35 35 35 35 36 36 36 36 37 38 39 40 40 41 42 42 42 42 42 43 43 43 43 45 46 48 48 49 49 50 50 51 52 52 52 54 55 55 56 56 57 56
34 34 34 33 33 34 34 35 36 36 37 38 38 39 40 41 42 42 42 42 42 42 42 43 45 45 47 48 49 50 50 50 50 51 52 52 53 54 55 55 56 55 55
32 32 32 32 32 32 34 34 35 35 36 36 37 38 39 40 40 41 41 41 41 41 42 43 44 45 46 48 48 49 49 49 49 50 52 52 52 52 53 53 54 54 54
31 31 31 31 31 32 32 33 35 35 35 36 36 37 38 38 39 39 40 40 40 41 42 42 43 45 46 47 47 47 48 48 48 49 50 51 51 51 52 52 53 53 53
31 31 31 31 32 32 32 33 34 34 34 34 35 36 36 37 38 39 40 41 41 42 42 42 43 44 44 45 45 46 47 47 48 48 49 50 50 51 50 50 51 52 53
Wind_Direction
253 253 255 254 253 252 250 248 247 247 246 245 244 244 244 243 242 242 243 243 243 244 244 244 245 248 248 250 253 256 257 259 263 266 267 269 273 276 280 283 286 288 290
253 254 254 254 254 252 251 248 246 246 246 245 244 245 245 243 242 241 242 243 244 244 245 245 246 248 248 250 252 255 257 259 262 266 268 270 272 275 278 281 284 286 288
254 255 256 255 254 253 252 248 246 246 246 245 244 244 245 244 243 243 243 244 245 245 245 245 246 247 248 250 252 255 258 260 262 264 267 269 272 273 276 280 283 285 287
255 256 256 256 255 253 252 249 246 245 245 245 246 245 245 245 244 245 245 246 246 246 246 247 247 249 250 251 253 255 258 259 263 264 267 269 272 273 275 278 281 283 286
256 257 256 257 256 252 252 250 247 246 245 245 245 245 244 245 245 246 246 246 246 247 247 247 248 249 250 252 253 254 257 259 261 264 266 268 270 272 275 278 280 282 284
257 258 257 258 257 254 251 249 248 247 246 246 245 245 246 246 246 246 247 247 247 247 247 248 249 249 250 252 254 255 257 259 261 264 266 267 269 272 274 277 278 281 283
259 260 259 258 258 255 252 248 249 248 247 246 245 245 246 246 245 246 247 247 248 249 248 248 248 249 251 253 255 256 257 259 262 264 266 268 269 271 273 275 277 279 281
260 260 259 259 257 255 252 249 249 247 246 247 246 246 246 246 247 248 249 248 248 248 248 248 248 250 251 253 255 256 257 259 261 263 266 268 269 271 272 274 276 279 280
260 261 260 260 257 254 253 251 249 248 248 247 246 245 246 246 248 248 248 249 248 246 248 250 249 250 252 253 255 258 259 261 262 263 265 267 269 270 271 273 275 278 280
261 262 261 260 258 257 255 252 250 251 250 248 247 247 247 248 248 248 249 250 250 249 250 251 252 253 254 255 257 259 260 262 264 264 264 266 267 268 270 273 275 277 279
263 264 263 260 258 258 257 255 254 254 253 252 251 249 249 248 248 248 248 249 250 251 251 252 253 254 255 256 258 260 261 262 263 264 264 266 267 268 270 272 275 276 278
264 263 264 262 260 259 258 257 255 255 255 254 253 252 252 250 248 248 248 248 249 250 251 251 252 254 256 257 258 260 261 263 263 264 265 266 268 269 270 272 274 276 279
265 264 264 264 262 260 259 258 256 257 255 255 254 253 253 252 251 250 249 250 250 250 251 252 253 254 256 258 259 260 261 263 264 264 265 266 268 270 272 273 275 276 278
265 265 266 266 264 262 262 260 257 257 256 256 254 254 253 253 253 252 251 252 251 251 252 253 253 254 256 257 259 260 261 262 263 264 265 267 268 270 272 274 275 277 279
266 267 266 266 266 265 262 261 259 258 257 255 255 254 253 252 253 254 253 254 254 252 252 253 255 256 257 257 259 260 261 262 263 265 266 267 268 270 271 274 275 277 279
266 266 266 266 266 266 264 262 261 260 258 257 256 255 254 253 253 255 255 255 255 255 254 254 256 257 258 258 259 260 260 262 263 265 266 267 269 271 272 274 276 277 278
267 267 267 266 266 266 264 261 261 259 258 256 255 255 256 255 253 255 255 255 255 256 257 256 256 257 258 259 260 261 261 263 264 265 266 268 269 271 273 274 276 277 278
267 267 268 268 266 265 263 260 259 258 256 255 254 255 255 254 253 255 255 255 256 257 258 257 257 257 258 259 260 261 262 263 265 266 267 269 270 271 273 274 276 278 279
269 268 269 268 265 264 263 261 260 258 256 255 254 254 254 254 254 255 256 257 257 258 259 259 258 258 259 259 260 261 262 264 265 267 269 270 271 272 274 275 276 278 279
271 270 269 268 265 264 263 261 260 257 256 256 255 255 255 256 256 257 258 258 258 259 260 259 259 259 259 260 260 262 263 264 266 268 270 271 271 273 275 275 277 277 278
271 271 270 268 265 264 263 262 260 258 257 257 256 256 256 257 258 258 259 259 261 261 261 261 260 261 260 260 261 263 264 265 266 269 271 271 272 274 275 275 276 277 277
271 270 269 267 264 264 263 262 261 260 259 257 256 256 256 256 256 258 260 261 262 263 263 262 261 262 261 262 262 264 266 267 268 269 271 273 274 275 276 277 278 277 277
270 268 266 265 263 262 263 262 261 261 260 259 258 256 255 256 256 258 259 262 263 264 264 263 264 264 264 264 264 265 267 268 270 271 272 274 275 277 278 279 278 278 278
268 267 266 265 263 262 262 262 261 261 260 260 259 258 257 257 257 258 259 261 263 263 264 265 266 266 266 266 267 268 269 270 271 272 274 275 276 277 278 279 279 279 279
267 267 267 266 265 263 262 262 261 263 263 261 260 260 260 259 259 259 260 262 263 263 265 267 268 268 268 268 269 270 271 272 272 273 275 277 277 278 278 278 279 279 280
267 267 267 267 265 264 264 264 263 263 263 262 261 260 261 261 262 262 262 263 264 265 267 268 268 269 270 270 271 272 272 273 274 275 275 277 278 279 279 278 279 280 281
Height
5780 5782 5784 5785 5786 5788 5790 5793 5795 5798 5801 5803 5806 5808 5811 5814 5816 5819 5821 5824 5826 5828 5830 5831 5833 5835 5836 5838 5839 5840 5841 5842 5842 5842 5843 5843 5843 5843 5843 5843 5842 5842 5841
5772 5774 5775 5777 5779 5781 5783 5785 5788 5791 5794 5796 5799 5801 5804 5807 5810 5813 5815 5818 5820 5822 5823 5825 5827 5829 5831 5832 5833 5834 5835 5836 5837 5837 5838 5838 5838 5838 5838 5838 5837 5837 5836
5763 5765 5767 5769 5771 5772 5775 5777 5779 5783 5786 5789 5792 5794 5797 5800 5803 5806 5808 5811 5813 5815 5817 5819 5821 5823 5824 5826 5827 5828 5830 5831 5831 5832 5832 5832 5833 5833 5833 5832 5832 5831 5830
5755 5756 5758 5760 5762 5763 5766 5768 5771 5775 5778 5781 5784 5787 5790 5793 5796 5798 5801 5803 5806 5808 5810 5812 5814 5816 5818 5819 5821 5822 5823 5824 5825 5826 5826 5826 5826 5826 5826 5826 5826 5825 5824
5746 5748 5749 5751 5753 5754 5756 5759 5763 5766 5769 5772 5775 5779 5782 5785 5787 5790 5793 5796 5798 5800 5803 5805 5807 5809 5811 5812 5814 5815 5816 5817 5818 5819 5819 5820 5820 5820 5820 5820 5819 5819 5818
5738 5739 5741 5742 5743 5745 5747 5750 5754 5757 5760 5764 5767 5770 5773 5776 5779 5782 5784 5787 5790 5792 5794 5797 5799 5801 5803 5804 5806 5807 5809 5810 5811 5812 5812 5812 5813 5813 5813 5812 5812 5812 5811
5729 5731 5732 5733 5734 5736 5738 5741 5744 5748 5751 5754 5758 5761 5764 5767 5770 5773 5775 5778 5781 5783 5786 5788 5790 5793 5795 5796 5798 5799 5800 5802 5803 5804 5804 5805 5805 5805 5805 5805 5805 5804 5803
5721 5722 5723 5724 5725 5727 5729 5732 5734 5737 5741 5744 5748 5751 5754 5758 5760 5763 5766 5769 5772 5774 5777 5779 5781 5784 5786 5788 5789 5791 5792 5793 5794 5795 5796 5796 5797 5797 5797 5797 5797 5796 5796
5712 5713 5714 5715 5717 5718 5720 5723 5725 5728 5731 5734 5737 5740 5744 5748 5751 5754 5756 5759 5762 5765 5767 5770 5772 5775 5777 5779 5780 5782 5784 5785 5786 5787 5787 5788 5788 5788 5788 5788 5788 5788 5787
5703 5704 5705 5706 5708 5709 5711 5713 5715 5718 5720 5723 5726 5729 5733 5736 5740 5743 5746 5749 5751 5754 5757 5760 5763 5765 5767 5769 5771 5773 5774 5776 5776 5777 5778 5778 5779 5779 5779 5779 5779 5778 5778
5694 5694 5696 5697 5698 5700 5701 5704 5706 5708 5710 5713 5716 5718 5721 5725 5728 5732 5735 5739 5741 5744 5747 5750 5752 5755 5757 5759 5761 5763 5764 5765 5766 5767 5768 5768 5769 5769 5769 5769 5769 5768 5768
5684 5685 5686 5688 5689 5690 5692 5693 5695 5698 5700 5702 5704 5707 5710 5713 5717 5720 5724 5727 5730 5733 5736 5739 5742 5744 5746 5748 5750 5752 5753 5755 5756 5757 5758 5758 5758 5759 5759 5758 5758 5758 5757
5675 5676 5677 5678 5679 5680 5681 5683 5684 5687 5689 5691 5694 5696 5699 5702 5705 5708 5712 5715 5719 5722 5725 5728 5730 5732 5734 5737 5739 5740 5742 5743 5744 5745 5746 5747 5748 5748 5748 5747 5747 5747 5746
5666 5667 5667 5668 5669 5670 5671 5672 5674 5675 5677 5680 5682 5685 5688 5691 5693 5696 5700 5703 5706 5710 5713 5716 5718 5721 5723 5725 5727 5728 5730 5731 5732 5733 5734 5735 5736 5736 5736 5736 5735 5734 5733
5656 5657 5657 5658 5658 5659 5660 5661 5663 5665 5667 5669 5671 5674 5676 5679 5682 5684 5687 5690 5693 5697 5701 5704 5706 5708 5710 5712 5714 5716 5717 5719 5720 5721 5722 5723 5723 5724 5724 5723 5722 5722 5720
5646 5647 5647 5648 5648 5649 5649 5651 5652 5654 5655 5658 5660 5663 5666 5668 5670 5673 5675 5678 5680 5684 5687 5691 5693 5695 5697 5699 5701 5703 5704 5705 5707 5708 5709 5709 5710 5710 5710 5710 5709 5708 5707
5636 5636 5637 5637 5638 5638 5639 5640 5642 5644 5645 5648 5650 5652 5655 5657 5659 5661 5663 5666 5668 5671 5674 5678 5680 5682 5684 5686 5688 5689 5691 5692 5693 5694 5695 5696 5696 5696 5696 5696 5695 5694 5693
5626 5626 5626 5627 5628 5628 5629 5630 5632 5633 5635 5637 5639 5641 5643 5645 5648 5650 5652 5654 5657 5659 5661 5664 5667 5669 5671 5672 5674 5676 5677 5678 5680 5681 5681 5682 5682 5682 5682 5681 5681 5679 5678
5616 5616 5616 5617 5617 5618 5619 5620 5621 5623 5625 5626 5628 5630 5632 5634 5636 5638 5641 5643 5645 5647 5649 5651 5654 5656 5658 5659 5661 5662 5664 5665 5666 5667 5667 5667 5667 5667 5667 5666 5665 5664 5663
5606 5606 5606 5607 5607 5607 5608 5610 5611 5612 5614 5616 5618 5620 5622 5624 5626 5628 5630 5631 5633 5635 5637 5639 5641 5643 5645 5646 5647 5649 5651 5652 5653 5653 5653 5653 5653 5653 5652 5651 5650 5649 5647
5596 5596 5596 5596 5597 5597 5598 5599 5600 5602 5604 5606 5608 5610 5611 5613 5615 5617 5619 5620 5622 5623 5625 5626 5628 5630 5632 5633 5635 5636 5637 5638 5639 5639 5639 5639 5639 5638 5637 5635 5634 5632 5631
5585 5585 5585 5586 5586 5587 5588 5589 5590 5592 5594 5595 5597 5599 5601 5603 5604 5606 5608 5609 5611 5612 5613 5615 5617 5618 5619 5620 5622 5623 5624 5625 5626 5626 5625 5625 5624 5623 5621 5620 5618 5616 5614
5575 5575 5576 5576 5576 5577 5578 5579 5580 5582 5583 5585 5587 5588 5590 5592 5594 5595 5597 5598 5599 5600 5602 5603 5604 5605 5606 5608 5609 5610 5610 5611 5612 5611 5610 5611 5610 5608 5606 5604 5602 5600 5598
5565 5566 5566 5567 5567 5568 5569 5570 5571 5572 5574 5575 5576 5578 5580 5582 5583 5584 5586 5587 5588 5590 5590 5591 5593 5593 5593 5594 5595 5596 5596 5597 5598 5597 5595 5596 5595 5593 5592 5589 5586 5584 5582
5556 5557 5557 5558 5558 5559 5560 5560 5561 5562 5564 5565 5567 5568 5570 5571 5573 5574 5575 5577 5578 5578 5579 5579 5580 5580 5581 5581 5582 5582 5583 5583 5583 5583 5581 5580 5580 5578 5576 5574 5571 5569 5567
5547 5547 5548 5548 5549 5550 5550 5551 5552 5553 5555 5556 5557 5558 5560 5561 5562 5563 5564 5565 5567 5567 5568 5568 5568 5568 5568 5568 5568 5568 5568 5568 5568 5569 5567 5566 5564 5563 5562 5560 5557 5554 5552